User: anonymous   Login
Location: Unspecified
(0.0000°N, 0.0000°E)
Time: 19:17:51
(UTC+00:00)
Language:

NOAA 6 - Orbit

View from above orbital plane
View from above orbital plane
View from above satellite
View from above satellite

Ground track
Ground track

The orbit data is extracted from the following two-line orbital elements,

1 11416U 79057A   22018.56687226  .00000135  00000-0  64877-4 0  9991
2 11416  98.6669  29.1671 0010000 347.0870  13.0056 14.33685671220042
Epoch (UTC): 18 January 2022 13:36:17
Eccentricity: 0.0010000
inclination: 98.6669°
perigee height: 772 km
apogee height: 786 km
right ascension of ascending node: 29.1671°
argument of perigee: 347.0870°
revolutions per day: 14.33685671
mean anomaly at epoch: 13.0056°
orbit number at epoch: 22004

The dashed part of the orbit path shows where the satellite is in the earth's shadow,  

DLR